| time (UTC) | temp F | wind direction | speed knots | gust knots | rain 1hr in | rain 24hr in | rain mn in | humidity % | barometer mb |
| 20260510104419 | 64 | 38 | 0.0 | 0.0 | 0.00 | 0.00 | 0.00 | 99 | 1014.7 |
| 20260510103916 | 64 | 38 | 0.0 | 0.0 | 0.00 | 0.00 | 0.00 | 99 | 1014.7 |
| 20260510103414 | 64 | 41 | 0.0 | 0.0 | 0.00 | 0.00 | 0.00 | 99 | 1014.4 |
| 20260510102908 | 64 | 47 | 0.0 | 0.0 | 0.00 | 0.00 | 0.00 | 99 | 1014.7 |
| 20260510102404 | 64 | 39 | 0.0 | 0.0 | 0.00 | 0.00 | 0.00 | 99 | 1014.5 |
| 20260510101902 | 64 | 21 | 1.7 | 1.7 | 0.00 | 0.00 | 0.00 | 99 | 1014.4 |
| 20260510101400 | 64 | 28 | 0.0 | 0.0 | 0.00 | 0.00 | 0.00 | 99 | 1014.4 |
| 20260510100856 | 64 | 46 | 0.0 | 0.0 | 0.00 | 0.00 | 0.00 | 99 | 1014.4 |
| 20260510100354 | 65 | 18 | 0.0 | 0.0 | 0.00 | 0.00 | 0.00 | 99 | 1014.1 |
| 20260510095850 | 65 | 16 | 0.0 | 0.0 | 0.00 | 0.00 | 0.00 | 99 | 1014.4 |
| 20260510095344 | 65 | 16 | 0.0 | 0.0 | 0.00 | 0.00 | 0.00 | 99 | 1014.3 |
| 20260510094844 | 65 | 16 | 0.0 | 0.0 | 0.00 | 0.00 | 0.00 | 99 | 1014.2 |
| 20260510094340 | 65 | 43 | 0.0 | 0.0 | 0.00 | 0.00 | 0.00 | 99 | 1014.3 |
| 20260510093836 | 65 | 44 | 0.0 | 0.0 | 0.00 | 0.00 | 0.00 | 99 | 1014.2 |
| 20260510093332 | 65 | 11 | 0.0 | 0.0 | 0.00 | 0.00 | 0.00 | 99 | 1014.2 |
| 20260510092828 | 65 | 15 | 0.0 | 0.0 | 0.00 | 0.00 | 0.00 | 99 | 1014.2 |
| 20260510092324 | 65 | 14 | 0.0 | 0.0 | 0.00 | 0.00 | 0.00 | 99 | 1014.1 |
| 20260510091820 | 65 | 15 | 0.0 | 0.0 | 0.00 | 0.00 | 0.00 | 99 | 1014.2 |
| 20260510091318 | 65 | 22 | 0.0 | 0.0 | 0.00 | 0.00 | 0.00 | 99 | 1014.0 |
| 20260510090814 | 65 | 22 | 0.0 | 0.0 | 0.00 | 0.00 | 0.00 | 99 | 1014.3 |
| 20260510090311 | 65 | 22 | 0.0 | 0.0 | 0.00 | 0.00 | 0.00 | 99 | 1014.3 |
| 20260510085806 | 65 | 22 | 0.0 | 0.0 | 0.00 | 0.00 | 0.00 | 99 | 1014.3 |
| 20260510085301 | 65 | 22 | 0.0 | 0.0 | 0.00 | 0.00 | 0.00 | 99 | 1014.3 |
| 20260510084757 | 65 | 22 | 0.0 | 0.0 | 0.00 | 0.00 | 0.00 | 99 | 1014.2 |
| 20260510084254 | 66 | 22 | 0.0 | 0.0 | 0.00 | 0.00 | 0.00 | 99 | 1014.2 |
| 20260510083751 | 66 | 22 | 0.0 | 0.0 | 0.00 | 0.00 | 0.00 | 99 | 1014.0 |
| 20260510083248 | 66 | 22 | 0.0 | 0.0 | 0.00 | 0.00 | 0.00 | 99 | 1014.1 |
| 20260510082743 | 66 | 22 | 0.0 | 0.0 | 0.00 | 0.00 | 0.00 | 99 | 1014.1 |
| 20260510082240 | 66 | 22 | 0.0 | 0.0 | 0.00 | 0.00 | 0.00 | 99 | 1014.2 |
| 20260510081739 | 66 | 22 | 0.0 | 0.0 | 0.00 | 0.00 | 0.00 | 99 | 1014.3 |
| 20260510081235 | 66 | 22 | 0.0 | 0.0 | 0.00 | 0.00 | 0.00 | 99 | 1014.2 |
| 20260510080731 | 66 | 2 | 0.0 | 0.0 | 0.00 | 0.00 | 0.00 | 99 | 1014.2 |
| 20260510080227 | 66 | 2 | 0.0 | 0.0 | 0.00 | 0.00 | 0.00 | 99 | 1014.0 |
| 20260510075723 | 66 | 1 | 0.0 | 0.0 | 0.00 | 0.00 | 0.00 | 99 | 1013.9 |
| 20260510075221 | 66 | 1 | 0.0 | 0.0 | 0.00 | 0.00 | 0.00 | 99 | 1013.9 |
| 20260510074718 | 66 | 1 | 0.0 | 0.0 | 0.00 | 0.00 | 0.00 | 99 | 1014.0 |
| 20260510074214 | 66 | 15 | 0.0 | 0.0 | 0.00 | 0.00 | 0.00 | 99 | 1014.0 |
| 20260510073711 | 66 | 13 | 0.0 | 0.0 | 0.00 | 0.00 | 0.00 | 99 | 1014.0 |
| 20260510073206 | 66 | 29 | 0.0 | 0.0 | 0.00 | 0.00 | 0.00 | 99 | 1013.7 |
| 20260510072703 | 66 | 28 | 0.0 | 0.0 | 0.00 | 0.00 | 0.00 | 99 | 1013.7 |
| 20260510072159 | 66 | 28 | 0.0 | 0.0 | 0.00 | 0.00 | 0.00 | 99 | 1013.9 |
| 20260510071656 | 66 | 30 | 0.0 | 0.0 | 0.00 | 0.00 | 0.00 | 99 | 1013.7 |
| 20260510071153 | 66 | 28 | 0.0 | 0.0 | 0.00 | 0.00 | 0.00 | 99 | 1013.4 |
| 20260510070650 | 66 | 26 | 0.0 | 0.0 | 0.00 | 0.00 | 0.00 | 99 | 1013.4 |
| 20260510070148 | 66 | 18 | 0.0 | 0.0 | 0.00 | 0.00 | 0.00 | 99 | 1013.4 |
| 20260510065643 | 66 | 19 | 0.0 | 0.0 | 0.00 | 0.00 | 0.00 | 99 | 1013.5 |
| 20260510065139 | 66 | 19 | 0.0 | 0.0 | 0.00 | 0.00 | 0.00 | 99 | 1013.6 |
| 20260510064636 | 66 | 19 | 0.0 | 0.0 | 0.00 | 0.00 | 0.00 | 99 | 1013.8 |
| 20260510064133 | 66 | 18 | 0.0 | 0.0 | 0.00 | 0.00 | 0.00 | 99 | 1013.8 |
| 20260510063630 | 66 | 30 | 0.0 | 0.0 | 0.00 | 0.00 | 0.00 | 99 | 1013.9 |
| 20260510063126 | 66 | 1 | 0.0 | 0.0 | 0.00 | 0.00 | 0.00 | 99 | 1014.0 |
| 20260510062622 | 66 | 43 | 0.0 | 0.0 | 0.00 | 0.00 | 0.00 | 99 | 1013.9 |
| 20260510062118 | 66 | 44 | 0.0 | 0.0 | 0.00 | 0.00 | 0.00 | 99 | 1013.8 |
| 20260510061614 | 66 | 44 | 0.0 | 0.0 | 0.00 | 0.00 | 0.00 | 99 | 1013.8 |
| 20260510061112 | 66 | 44 | 0.0 | 0.0 | 0.00 | 0.00 | 0.00 | 99 | 1013.9 |
| 20260510060608 | 66 | 44 | 0.0 | 0.0 | 0.00 | 0.00 | 0.00 | 99 | 1014.0 |
| 20260510060105 | 66 | 44 | 0.0 | 0.0 | 0.00 | 0.00 | 0.00 | 99 | 1014.0 |
| 20260510055600 | 66 | 44 | 0.0 | 0.0 | 0.00 | 0.00 | 0.00 | 99 | 1014.1 |
| 20260510055059 | 66 | 44 | 0.0 | 0.0 | 0.00 | 0.00 | 0.00 | 99 | 1013.8 |
| 20260510054554 | 66 | 44 | 0.0 | 0.0 | 0.00 | 0.00 | 0.00 | 99 | 1013.8 |
| 20260510054050 | 66 | 44 | 0.0 | 0.0 | 0.00 | 0.00 | 0.00 | 99 | 1014.3 |
| 20260510053549 | 66 | 44 | 0.0 | 0.0 | 0.00 | 0.00 | 0.00 | 99 | 1014.0 |
| 20260510053047 | 66 | 44 | 0.0 | 0.0 | 0.00 | 0.00 | 0.00 | 99 | 1014.1 |
| 20260510052542 | 66 | 44 | 0.0 | 0.0 | 0.00 | 0.00 | 0.00 | 99 | 1014.1 |
| 20260510052038 | 66 | 44 | 0.0 | 0.0 | 0.00 | 0.00 | 0.00 | 99 | 1014.0 |
| 20260510051534 | 66 | 44 | 0.0 | 0.0 | 0.00 | 0.00 | 0.00 | 99 | 1014.0 |
| 20260510051031 | 66 | 44 | 0.0 | 0.0 | 0.00 | 0.00 | 0.00 | 99 | 1014.0 |
| 20260510050528 | 66 | 42 | 0.0 | 0.0 | 0.00 | 0.00 | 0.00 | 99 | 1014.1 |
| 20260510050026 | 66 | 42 | 0.0 | 0.0 | 0.00 | 2.90 | 2.90 | 99 | 1014.1 |
| 20260510045523 | 66 | 42 | 0.0 | 0.0 | 0.00 | 2.90 | 2.90 | 99 | 1014.5 |
| 20260510045018 | 66 | 42 | 0.0 | 0.0 | 0.00 | 2.90 | 2.90 | 99 | 1014.3 |
| 20260510044515 | 66 | 42 | 0.0 | 0.0 | 0.00 | 2.90 | 2.90 | 99 | 1014.0 |
| 20260510044013 | 66 | 42 | 0.0 | 0.0 | 0.00 | 2.90 | 2.90 | 99 | 1014.2 |
| 20260510043513 | 66 | 42 | 0.0 | 0.0 | 0.00 | 2.90 | 2.90 | 99 | 1014.0 |
| 20260510043009 | 66 | 42 | 0.0 | 0.0 | 0.00 | 2.90 | 2.90 | 99 | 1014.0 |
| 20260510042503 | 66 | 42 | 0.0 | 0.0 | 0.00 | 2.90 | 2.90 | 99 | 1014.0 |
| 20260510041958 | 66 | 42 | 0.0 | 0.0 | 0.00 | 2.90 | 2.90 | 99 | 1013.9 |
| 20260510041456 | 66 | 42 | 0.0 | 0.9 | 0.00 | 2.90 | 2.90 | 99 | 1013.8 |
| 20260510040954 | 66 | 43 | 0.0 | 0.0 | 0.00 | 2.90 | 2.90 | 99 | 1013.7 |
| 20260510040450 | 66 | 44 | 0.0 | 0.0 | 0.00 | 2.90 | 2.90 | 99 | 1013.7 |
| 20260510035946 | 66 | 44 | 0.0 | 0.0 | 0.00 | 2.90 | 2.90 | 99 | 1013.9 |
| 20260510035442 | 66 | 43 | 0.0 | 0.0 | 0.00 | 2.90 | 2.90 | 99 | 1013.8 |
| 20260510034942 | 66 | 43 | 0.0 | 0.0 | 0.00 | 2.90 | 2.90 | 99 | 1013.8 |
| 20260510034441 | 66 | 43 | 0.0 | 0.0 | 0.00 | 2.90 | 2.90 | 99 | 1014.1 |
| 20260510033937 | 66 | 43 | 0.0 | 0.0 | 0.00 | 2.90 | 2.90 | 99 | 1014.2 |
| 20260510033433 | 66 | 43 | 0.0 | 0.0 | 0.00 | 2.90 | 2.90 | 99 | 1014.0 |
| 20260510032931 | 66 | 43 | 0.0 | 0.0 | 0.00 | 2.90 | 2.90 | 99 | 1013.9 |
| 20260510032428 | 66 | 43 | 0.0 | 0.0 | 0.00 | 2.90 | 2.90 | 99 | 1014.0 |
| 20260510031928 | 66 | 43 | 0.0 | 0.0 | 0.00 | 2.90 | 2.90 | 99 | 1014.3 |
| 20260510031423 | 66 | 45 | 0.0 | 0.0 | 0.00 | 2.90 | 2.90 | 99 | 1014.0 |
| 20260510030919 | 66 | 45 | 0.0 | 0.0 | 0.00 | 2.90 | 2.90 | 99 | 1014.1 |
| 20260510030415 | 66 | 44 | 0.0 | 0.0 | 0.00 | 2.90 | 2.90 | 99 | 1014.2 |
| 20260510025913 | 66 | 45 | 0.0 | 0.0 | 0.00 | 2.90 | 2.90 | 99 | 1014.3 |
| 20260510025410 | 66 | 44 | 0.0 | 0.0 | 0.00 | 2.90 | 2.90 | 99 | 1014.3 |
| 20260510024907 | 66 | 43 | 0.0 | 0.0 | 0.00 | 2.90 | 2.90 | 99 | 1014.3 |
| 20260510024403 | 66 | 42 | 0.9 | 0.9 | 0.00 | 2.90 | 2.90 | 99 | 1014.1 |
| 20260510023859 | 66 | 70 | 0.0 | 0.0 | 0.00 | 2.90 | 2.90 | 99 | 1013.6 |
| 20260510023356 | 66 | 71 | 0.0 | 0.0 | 0.00 | 2.90 | 2.90 | 99 | 1013.8 |
| 20260510022853 | 67 | 70 | 0.0 | 0.0 | 0.00 | 2.90 | 2.90 | 99 | 1014.0 |
| 20260510022352 | 67 | 72 | 0.9 | 0.9 | 0.00 | 2.90 | 2.90 | 99 | 1013.9 |
| 20260510021851 | 66 | 28 | 0.0 | 0.0 | 0.00 | 2.90 | 2.90 | 99 | 1014.0 |
| 20260510021350 | 66 | 353 | 0.0 | 0.9 | 0.00 | 2.90 | 2.90 | 99 | 1014.0 |
| 20260510020846 | 66 | 17 | 0.0 | 0.0 | 0.00 | 2.90 | 2.90 | 99 | 1013.4 |
| 20260510020346 | 66 | 130 | 0.0 | 0.0 | 0.00 | 2.90 | 2.90 | 99 | 1013.3 |
| 20260510015842 | 67 | 130 | 0.0 | 0.0 | 0.00 | 2.90 | 2.90 | 99 | 1013.4 |
| 20260510015338 | 67 | 131 | 0.0 | 0.0 | 0.00 | 2.90 | 2.90 | 99 | 1013.6 |
| 20260510014833 | 67 | 133 | 0.9 | 0.9 | 0.00 | 2.90 | 2.90 | 99 | 1013.9 |
| 20260510014331 | 67 | 44 | 0.0 | 0.0 | 0.00 | 2.90 | 2.90 | 99 | 1014.0 |
| 20260510013827 | 67 | 45 | 0.0 | 0.0 | 0.00 | 2.90 | 2.90 | 99 | 1014.1 |
| 20260510013322 | 67 | 108 | 0.0 | 0.0 | 0.00 | 2.90 | 2.90 | 99 | 1014.0 |
| 20260510012818 | 67 | 61 | 0.0 | 0.0 | 0.00 | 2.90 | 2.90 | 99 | 1013.9 |
| 20260510012317 | 67 | 333 | 0.0 | 0.0 | 0.00 | 2.90 | 2.90 | 99 | 1014.3 |
| 20260510011812 | 67 | 334 | 0.0 | 0.0 | 0.00 | 2.90 | 2.90 | 99 | 1013.9 |
| 20260510011308 | 67 | 1 | 0.9 | 0.9 | 0.00 | 2.90 | 2.90 | 99 | 1013.4 |
| 20260510010805 | 67 | 29 | 0.0 | 0.0 | 0.00 | 2.90 | 2.90 | 99 | 1013.4 |
| 20260510010302 | 67 | 125 | 0.0 | 0.0 | 0.00 | 2.90 | 2.90 | 99 | 1013.7 |
| 20260510005759 | 67 | 127 | 0.9 | 0.9 | 0.07 | 2.90 | 2.90 | 99 | 1013.5 |
| 20260510005255 | 67 | 14 | 0.0 | 0.0 | 0.07 | 2.90 | 2.90 | 99 | 1013.5 |
| 20260510004753 | 67 | 14 | 0.0 | 0.0 | 0.00 | 2.89 | 2.89 | 99 | 1013.5 |
| 20260510004250 | 67 | 15 | 0.0 | 0.0 | 0.00 | 2.89 | 2.89 | 99 | 1013.3 |
| 20260510003747 | 67 | 359 | 0.0 | 0.0 | 0.00 | 2.89 | 2.89 | 99 | 1013.2 |
| 20260510003244 | 67 | 11 | 0.0 | 0.0 | 0.00 | 2.89 | 2.89 | 99 | 1013.2 |
| 20260510002742 | 67 | 333 | 1.7 | 1.7 | 0.00 | 2.89 | 2.89 | 99 | 1012.6 |
| 20260510002240 | 66 | 62 | 0.0 | 0.0 | 0.00 | 2.89 | 2.89 | 99 | 1012.6 |
| 20260510001737 | 66 | 133 | 0.9 | 0.9 | 0.00 | 2.89 | 2.89 | 99 | 1012.9 |
| 20260510001236 | 66 | 105 | 0.0 | 0.9 | 0.00 | 2.89 | 2.89 | 99 | 1012.5 |
| 20260510000731 | 66 | 100 | 0.0 | 0.0 | 0.07 | 2.89 | 2.89 | 99 | 1012.6 |
| 20260510000228 | 66 | 75 | 0.0 | 0.0 | 0.07 | 2.89 | 2.89 | 99 | 1012.2 |
| 20260509235725 | 66 | 25 | 0.0 | 0.0 | 0.00 | 2.88 | 2.88 | 99 | 1012.3 |
| 20260509235221 | 66 | 46 | 0.0 | 0.0 | 0.00 | 2.88 | 2.88 | 99 | 1012.8 |
| 20260509234717 | 66 | 111 | 0.0 | 0.0 | 0.00 | 2.88 | 2.88 | 99 | 1013.0 |
| 20260509234215 | 66 | 53 | 0.0 | 0.0 | 0.00 | 2.88 | 2.88 | 99 | 1012.8 |
| 20260509233713 | 66 | 52 | 0.0 | 0.0 | 0.00 | 2.88 | 2.88 | 99 | 1012.8 |
| 20260509233210 | 66 | 13 | 0.0 | 0.9 | 0.05 | 2.88 | 2.88 | 99 | 1012.8 |
| 20260509232706 | 66 | 179 | 0.0 | 0.0 | 0.12 | 2.88 | 2.88 | 99 | 1012.7 |
| 20260509232203 | 66 | 195 | 0.0 | 0.0 | 0.07 | 2.87 | 2.87 | 99 | 1012.7 |
| 20260509231700 | 66 | 255 | 1.7 | 1.7 | 0.00 | 2.86 | 2.86 | 99 | 1012.5 |
| 20260509231157 | 66 | 113 | 0.0 | 0.9 | 0.05 | 2.86 | 2.86 | 99 | 1012.3 |
| 20260509230654 | 66 | 141 | 0.0 | 0.0 | 0.05 | 2.86 | 2.86 | 99 | 1012.5 |
| 20260509230151 | 66 | 136 | 0.0 | 0.0 | 0.00 | 2.85 | 2.85 | 99 | 1012.6 |
| 20260509225647 | 66 | 136 | 0.0 | 0.0 | 0.07 | 2.85 | 2.85 | 99 | 1012.6 |
| 20260509225142 | 66 | 138 | 0.9 | 0.9 | 0.07 | 2.85 | 2.85 | 99 | 1012.9 |
| 20260509224638 | 66 | 113 | 0.0 | 0.0 | 0.05 | 2.84 | 2.84 | 99 | 1013.0 |
| 20260509224135 | 66 | 188 | 1.7 | 1.7 | 0.05 | 2.84 | 2.84 | 99 | 1013.0 |
| 20260509223632 | 66 | 21 | 0.0 | 0.0 | 0.07 | 2.83 | 2.83 | 99 | 1012.7 |
| 20260509223130 | 66 | 31 | 0.0 | 0.0 | 0.12 | 2.83 | 2.83 | 99 | 1012.6 |
| 20260509222626 | 66 | 29 | 0.0 | 0.9 | 0.12 | 2.82 | 2.82 | 99 | 1012.7 |
| 20260509222121 | 66 | 337 | 0.0 | 0.0 | 0.12 | 2.81 | 2.81 | 99 | 1012.9 |
| 20260509221618 | 66 | 51 | 0.9 | 0.9 | 0.12 | 2.80 | 2.80 | 99 | 1012.9 |
| 20260509221114 | 66 | 22 | 0.0 | 0.0 | 0.19 | 2.79 | 2.79 | 99 | 1013.1 |
| 20260509220610 | 66 | 330 | 0.9 | 1.7 | 0.19 | 2.78 | 2.78 | 99 | 1013.2 |
| 20260509220107 | 66 | 139 | 0.0 | 0.9 | 0.19 | 2.77 | 2.77 | 99 | 1012.9 |
| 20260509215601 | 66 | 165 | 0.9 | 0.9 | 0.12 | 2.75 | 2.75 | 99 | 1012.9 |
| 20260509215059 | 66 | 323 | 0.9 | 0.9 | 0.12 | 2.74 | 2.74 | 99 | 1012.8 |
| 20260509214556 | 66 | 19 | 1.7 | 1.7 | 0.12 | 2.73 | 2.73 | 99 | 1012.4 |
| 20260509214053 | 66 | 121 | 0.9 | 0.9 | 0.12 | 2.72 | 2.72 | 99 | 1012.6 |
| 20260509213549 | 66 | 166 | 1.7 | 1.7 | 0.12 | 2.71 | 2.71 | 99 | 1012.4 |
| 20260509213046 | 66 | 359 | 1.7 | 1.7 | 0.07 | 2.70 | 2.70 | 99 | 1012.2 |
| 20260509212543 | 66 | 113 | 0.0 | 0.0 | 0.00 | 2.69 | 2.69 | 99 | 1012.3 |
| 20260509212040 | 66 | 1 | 0.0 | 0.0 | 0.00 | 2.69 | 2.69 | 99 | 1012.3 |
| 20260509211535 | 66 | 316 | 0.9 | 0.9 | 0.00 | 2.69 | 2.69 | 99 | 1012.3 |
| 20260509211032 | 66 | 157 | 0.0 | 0.9 | 0.05 | 2.69 | 2.69 | 99 | 1012.2 |
| 20260509210529 | 66 | 3 | 0.0 | 0.0 | 0.05 | 2.69 | 2.69 | 99 | 1012.1 |
| 20260509210026 | 66 | 355 | 0.0 | 0.0 | 0.00 | 2.68 | 2.68 | 99 | 1012.3 |
| 20260509205525 | 66 | 203 | 0.9 | 0.9 | 0.07 | 2.68 | 2.68 | 99 | 1012.0 |
| 20260509205021 | 66 | 7 | 0.0 | 0.0 | 0.07 | 2.68 | 2.68 | 99 | 1012.2 |
| 20260509204518 | 66 | 125 | 0.0 | 0.0 | 0.05 | 2.67 | 2.67 | 99 | 1011.9 |
| 20260509204014 | 66 | 19 | 0.9 | 0.9 | 0.12 | 2.67 | 2.67 | 99 | 1011.8 |
| 20260509203510 | 66 | 91 | 0.0 | 0.0 | 0.12 | 2.66 | 2.66 | 99 | 1011.7 |
| 20260509203009 | 66 | 72 | 0.0 | 0.0 | 0.12 | 2.65 | 2.65 | 99 | 1012.1 |
| 20260509202509 | 66 | 121 | 0.9 | 0.9 | 0.14 | 2.64 | 2.64 | 99 | 1012.4 |
| 20260509202005 | 66 | 138 | 0.9 | 0.9 | 0.07 | 2.63 | 2.63 | 99 | 1012.9 |
| 20260509201459 | 66 | 60 | 0.0 | 0.0 | 0.00 | 2.62 | 2.62 | 99 | 1012.9 |
| 20260509200957 | 66 | 302 | 0.0 | 0.0 | 0.05 | 2.62 | 2.62 | 99 | 1012.7 |
| 20260509200452 | 66 | 352 | 0.9 | 1.7 | 0.12 | 2.62 | 2.62 | 99 | 1012.0 |
| 20260509195949 | 66 | 51 | 0.0 | 0.0 | 0.24 | 2.61 | 2.61 | 99 | 1012.4 |
| 20260509195444 | 66 | 74 | 0.9 | 1.7 | 0.35 | 2.60 | 2.60 | 99 | 1012.8 |
| 20260509194944 | 66 | 7 | 1.7 | 2.6 | 0.28 | 2.58 | 2.58 | 99 | 1013.0 |
| 20260509194440 | 66 | 68 | 0.9 | 0.9 | 0.24 | 2.54 | 2.54 | 99 | 1013.7 |
| 20260509193937 | 65 | 278 | 1.7 | 2.6 | 0.26 | 2.53 | 2.53 | 99 | 1013.9 |
| 20260509193436 | 65 | 142 | 0.0 | 0.0 | 0.24 | 2.51 | 2.51 | 99 | 1013.6 |
| 20260509192933 | 65 | 99 | 0.0 | 0.0 | 0.24 | 2.49 | 2.49 | 99 | 1013.5 |
| 20260509192430 | 66 | 197 | 0.9 | 0.9 | 0.24 | 2.47 | 2.47 | 99 | 1013.6 |
| 20260509191924 | 65 | 23 | 0.0 | 0.0 | 0.17 | 2.45 | 2.45 | 99 | 1013.6 |
| 20260509191420 | 65 | 23 | 0.0 | 0.0 | 0.17 | 2.43 | 2.43 | 99 | 1013.3 |
| 20260509190916 | 65 | 19 | 0.0 | 0.0 | 0.26 | 2.42 | 2.42 | 99 | 1013.4 |
| 20260509190414 | 66 | 0 | 0.0 | 0.0 | 0.19 | 2.40 | 2.40 | 99 | 1013.2 |
| 20260509185911 | 65 | 85 | 0.0 | 0.0 | 0.19 | 2.39 | 2.39 | 99 | 1013.2 |
| 20260509185409 | 65 | 63 | 0.0 | 0.0 | 0.12 | 2.37 | 2.37 | 99 | 1013.7 |
| 20260509184905 | 65 | 63 | 0.0 | 0.0 | 0.12 | 2.36 | 2.36 | 99 | 1013.7 |
| 20260509184402 | 65 | 35 | 0.0 | 0.0 | 0.07 | 2.35 | 2.35 | 99 | 1013.7 |
| 20260509183859 | 65 | 5 | 0.0 | 0.9 | 0.05 | 2.34 | 2.34 | 99 | 1014.1 |
| 20260509183353 | 65 | 209 | 0.0 | 0.0 | 0.05 | 2.34 | 2.34 | 99 | 1013.6 |
| 20260509182849 | 65 | 106 | 0.0 | 0.0 | 0.00 | 2.33 | 2.33 | 99 | 1013.2 |
| 20260509182347 | 66 | 46 | 0.0 | 0.0 | 0.00 | 2.33 | 2.33 | 99 | 1013.5 |
| 20260509181844 | 66 | 73 | 0.0 | 0.0 | 0.00 | 2.33 | 2.33 | 99 | 1013.3 |
| 20260509181341 | 65 | 51 | 0.0 | 0.0 | 0.00 | 2.33 | 2.33 | 99 | 1013.4 |
| 20260509180839 | 65 | 51 | 0.0 | 0.0 | 0.00 | 2.33 | 2.33 | 99 | 1013.6 |
| 20260509180335 | 65 | 214 | 0.0 | 0.0 | 0.00 | 2.33 | 2.33 | 99 | 1013.6 |
| 20260509175832 | 65 | 73 | 0.0 | 0.0 | 0.00 | 2.33 | 2.33 | 99 | 1013.7 |
| 20260509175328 | 65 | 138 | 0.0 | 0.0 | 0.00 | 2.33 | 2.33 | 99 | 1013.7 |
| 20260509174824 | 66 | 23 | 0.0 | 0.0 | 0.00 | 2.33 | 2.33 | 99 | 1013.8 |
| 20260509174319 | 65 | 162 | 0.9 | 0.9 | 0.00 | 2.33 | 2.33 | 99 | 1013.7 |
| 20260509173816 | 65 | 112 | 0.9 | 0.9 | 0.07 | 2.33 | 2.33 | 99 | 1013.1 |
| 20260509173311 | 66 | 108 | 0.0 | 0.0 | 0.07 | 2.33 | 2.33 | 99 | 1013.1 |
| 20260509172807 | 65 | 107 | 0.0 | 0.0 | 0.00 | 2.32 | 2.32 | 99 | 1013.5 |
| 20260509172306 | 65 | 79 | 0.0 | 0.0 | 0.00 | 2.32 | 2.32 | 99 | 1013.4 |
| 20260509171800 | 66 | 29 | 0.0 | 0.0 | 0.00 | 2.32 | 2.32 | 99 | 1013.5 |
| 20260509171256 | 65 | 95 | 0.0 | 0.0 | 0.00 | 2.32 | 2.32 | 99 | 1013.5 |
| 20260509170753 | 66 | 110 | 0.0 | 0.0 | 0.00 | 2.32 | 2.32 | 99 | 1013.5 |
| 20260509170249 | 66 | 238 | 0.0 | 0.0 | 0.00 | 2.32 | 2.32 | 99 | 1013.4 |
| 20260509165748 | 66 | 238 | 0.0 | 0.0 | 0.00 | 2.32 | 2.32 | 99 | 1013.3 |
| 20260509165243 | 65 | 238 | 0.0 | 0.0 | 0.00 | 2.32 | 2.32 | 99 | 1013.5 |
| 20260509164739 | 65 | 257 | 1.7 | 1.7 | 0.00 | 2.32 | 2.32 | 99 | 1013.6 |
| 20260509164235 | 65 | 65 | 0.9 | 0.9 | 0.05 | 2.32 | 2.32 | 99 | 1013.2 |
| 20260509163733 | 65 | 22 | 0.0 | 0.9 | 0.05 | 2.32 | 2.32 | 99 | 1013.7 |
| 20260509163229 | 65 | 153 | 0.9 | 0.9 | 0.00 | 2.31 | 2.31 | 99 | 1013.8 |
| 20260509162727 | 65 | 268 | 1.7 | 1.7 | 0.00 | 2.31 | 2.31 | 99 | 1013.5 |
| 20260509162221 | 65 | 31 | 0.0 | 0.9 | 0.00 | 2.31 | 2.31 | 99 | 1013.9 |
| 20260509161717 | 65 | 218 | 1.7 | 2.6 | 0.00 | 2.31 | 2.31 | 99 | 1013.9 |
| 20260509161215 | 65 | 91 | 0.0 | 0.0 | 0.00 | 2.31 | 2.31 | 99 | 1013.7 |
| 20260509160715 | 65 | 325 | 1.7 | 2.6 | 0.00 | 2.31 | 2.31 | 99 | 1013.8 |
| 20260509160211 | 65 | 66 | 0.0 | 0.9 | 0.00 | 2.31 | 2.31 | 99 | 1014.0 |
| 20260509155706 | 65 | 106 | 2.6 | 3.5 | 0.07 | 2.31 | 2.31 | 99 | 1013.7 |
| 20260509155203 | 65 | 27 | 0.0 | 0.0 | 0.07 | 2.31 | 2.31 | 99 | 1013.7 |
| 20260509154659 | 65 | 76 | 0.0 | 0.0 | 0.05 | 2.30 | 2.30 | 99 | 1013.6 |
| 20260509154157 | 65 | 183 | 1.7 | 1.7 | 0.12 | 2.30 | 2.30 | 99 | 1014.1 |
| 20260509153653 | 65 | 65 | 0.9 | 0.9 | 0.12 | 2.29 | 2.29 | 99 | 1014.2 |
| 20260509153150 | 65 | 65 | 0.0 | 0.0 | 0.19 | 2.28 | 2.28 | 99 | 1014.0 |
| 20260509152646 | 65 | 144 | 1.7 | 1.7 | 0.19 | 2.27 | 2.27 | 99 | 1014.0 |
| 20260509152143 | 65 | 85 | 0.0 | 0.0 | 0.12 | 2.25 | 2.25 | 99 | 1013.7 |
| 20260509151639 | 65 | 14 | 0.0 | 0.9 | 0.12 | 2.24 | 2.24 | 99 | 1013.6 |
| 20260509151137 | 65 | 183 | 0.9 | 0.9 | 0.17 | 2.23 | 2.23 | 99 | 1013.4 |
| 20260509150635 | 65 | 114 | 0.9 | 0.9 | 0.24 | 2.22 | 2.22 | 99 | 1013.2 |
| 20260509150133 | 65 | 42 | 0.0 | 0.0 | 0.19 | 2.20 | 2.20 | 99 | 1013.0 |
| 20260509145629 | 65 | 84 | 0.0 | 0.9 | 0.12 | 2.18 | 2.18 | 99 | 1013.0 |
| 20260509145124 | 65 | 85 | 0.0 | 0.9 | 0.17 | 2.17 | 2.17 | 99 | 1013.1 |
| 20260509144621 | 65 | 323 | 1.7 | 1.7 | 0.26 | 2.16 | 2.16 | 99 | 1013.1 |
| 20260509144118 | 65 | 75 | 0.0 | 0.0 | 0.35 | 2.15 | 2.15 | 99 | 1013.2 |
| 20260509143615 | 65 | 79 | 0.0 | 0.9 | 0.47 | 2.12 | 2.12 | 99 | 1013.7 |
| 20260509143113 | 65 | 81 | 0.0 | 0.9 | 0.50 | 2.09 | 2.09 | 99 | 1013.5 |
| 20260509142613 | 65 | 259 | 0.0 | 0.0 | 0.31 | 2.04 | 2.04 | 99 | 1013.9 |
| 20260509142110 | 65 | 308 | 0.9 | 0.9 | 0.24 | 2.01 | 2.01 | 99 | 1013.9 |
| 20260509141606 | 65 | 22 | 2.6 | 3.5 | 0.17 | 1.99 | 1.99 | 99 | 1013.1 |
| 20260509141103 | 65 | 76 | 0.9 | 0.9 | 0.17 | 1.97 | 1.97 | 99 | 1012.9 |
| 20260509140600 | 65 | 67 | 0.0 | 0.9 | 0.19 | 1.96 | 1.96 | 99 | 1013.2 |
| 20260509140058 | 65 | 272 | 1.7 | 2.6 | 0.17 | 1.95 | 1.95 | 99 | 1012.8 |
| 20260509135555 | 65 | 50 | 0.0 | 0.0 | 0.17 | 1.93 | 1.93 | 99 | 1012.7 |
| 20260509135053 | 65 | 106 | 0.0 | 0.0 | 0.42 | 1.92 | 1.92 | 99 | 1012.6 |
| 20260509134549 | 65 | 122 | 0.0 | 0.0 | 0.50 | 1.90 | 1.90 | 99 | 1012.8 |
| 20260509134047 | 65 | 124 | 0.0 | 0.0 | 0.40 | 1.86 | 1.86 | 99 | 1013.3 |
| 20260509133543 | 65 | 125 | 0.0 | 0.0 | 0.54 | 1.82 | 1.82 | 99 | 1013.7 |
| 20260509133041 | 65 | 125 | 0.0 | 0.0 | 0.35 | 1.78 | 1.78 | 99 | 1013.8 |
| 20260509132539 | 65 | 99 | 0.0 | 0.9 | 0.17 | 1.73 | 1.73 | 99 | 1013.8 |
| 20260509132037 | 65 | 50 | 0.0 | 0.0 | 0.24 | 1.72 | 1.72 | 99 | 1013.4 |
| 20260509131533 | 65 | 27 | 0.0 | 0.0 | 0.24 | 1.70 | 1.70 | 99 | 1013.4 |
| 20260509131030 | 65 | 50 | 0.0 | 0.0 | 0.19 | 1.68 | 1.68 | 99 | 1013.4 |
| 20260509130525 | 65 | 26 | 0.0 | 0.0 | 0.19 | 1.66 | 1.66 | 99 | 1013.9 |
| 20260509130023 | 65 | 25 | 0.0 | 0.0 | 0.19 | 1.65 | 1.65 | 99 | 1013.8 |
| 20260509125519 | 65 | 262 | 0.0 | 0.9 | 0.19 | 1.63 | 1.63 | 99 | 1014.1 |
| 20260509125016 | 65 | 42 | 0.0 | 0.0 | 0.24 | 1.62 | 1.62 | 99 | 1013.7 |
| 20260509124513 | 65 | 75 | 0.9 | 0.9 | 0.17 | 1.60 | 1.60 | 99 | 1013.3 |
| 20260509124010 | 65 | 49 | 0.9 | 0.9 | 0.17 | 1.58 | 1.58 | 99 | 1013.6 |
| 20260509123508 | 65 | 107 | 0.0 | 0.0 | 0.31 | 1.57 | 1.57 | 99 | 1013.6 |
| 20260509123003 | 65 | 277 | 0.0 | 0.0 | 0.42 | 1.55 | 1.55 | 99 | 1013.3 |
| 20260509122500 | 65 | 50 | 0.0 | 0.0 | 0.78 | 1.52 | 1.52 | 99 | 1013.3 |
| 20260509121957 | 65 | 174 | 1.7 | 1.7 | 1.39 | 1.48 | 1.48 | 99 | 1012.5 |
| 20260509121454 | 65 | 48 | 1.7 | 1.7 | 2.58 | 1.39 | 1.39 | 99 | 1012.6 |
| 20260509120952 | 66 | 96 | 3.5 | 5.2 | 3.71 | 1.25 | 1.25 | 99 | 1013.1 |
| 20260509120449 | 66 | 35 | 2.6 | 5.2 | 3.73 | 0.96 | 0.96 | 99 | 1013.2 |
| 20260509115947 | 66 | 122 | 2.6 | 2.6 | 2.76 | 0.63 | 0.63 | 99 | 1013.0 |
| 20260509115444 | 67 | 283 | 2.6 | 2.6 | 0.94 | 0.32 | 0.32 | 99 | 1012.2 |
| 20260509114941 | 69 | 300 | 4.3 | 8.7 | 0.00 | 0.16 | 0.16 | 99 | 1012.8 |
| 20260509114440 | 69 | 22 | 1.7 | 2.6 | 0.00 | 0.16 | 0.16 | 99 | 1012.5 |
| 20260509113939 | 69 | 18 | 0.9 | 0.9 | 0.00 | 0.16 | 0.16 | 99 | 1011.2 |
| 20260509113436 | 69 | 170 | 0.9 | 0.9 | 0.00 | 0.16 | 0.16 | 99 | 1010.4 |
| 20260509112933 | 69 | 111 | 0.0 | 0.9 | 0.00 | 0.16 | 0.16 | 99 | 1010.2 |
| 20260509112430 | 69 | 178 | 1.7 | 1.7 | 0.00 | 0.16 | 0.16 | 99 | 1010.4 |
| 20260509111927 | 69 | 354 | 0.0 | 0.9 | 0.00 | 0.16 | 0.16 | 99 | 1010.6 |
| 20260509111424 | 69 | 353 | 0.0 | 0.0 | 0.00 | 0.16 | 0.16 | 99 | 1010.9 |
| 20260509110922 | 69 | 353 | 0.0 | 0.0 | 0.00 | 0.16 | 0.16 | 99 | 1010.7 |
| 20260509110417 | 69 | 352 | 0.0 | 0.0 | 0.00 | 0.16 | 0.16 | 99 | 1010.5 |
| 20260509105916 | 69 | 352 | 0.0 | 0.0 | 0.00 | 0.16 | 0.16 | 99 | 1010.6 |
| 20260509105414 | 69 | 349 | 0.9 | 0.9 | 0.00 | 0.16 | 0.16 | 99 | 1010.2 |
| 20260509104910 | 69 | 47 | 0.0 | 0.0 | 0.00 | 0.16 | 0.16 | 99 | 1010.4 |